Vertical_Velocity
1 1 1 3 1 1 -4 -3 1 0 -3 -3 -3 2 3 1 2 -0 -1 -1 -1 -3 6 2 0 -0 -2 -1 -1 -1 -2 -2 -1 -0 -1 -1 -0 -2 -4 -1 -1 1 1 -2
6 3 -3 -0 3 -1 -0 -2 2 -1 -3 -2 -1 4 -1 1 3 -0 0 -1 -1 -3 2 1 -0 -2 -2 -2 -1 -1 -2 -2 -2 -1 -2 2 1 -3 1 -3 -6 -1 -3 -1
-2 -1 1 1 -3 1 -4 -1 -2 -2 -5 -3 -2 1 5 -1 -0 2 -1 -3 -4 -6 -1 -0 -0 -1 -4 -1 -4 -4 -1 -1 -2 -2 -0 -1 1 1 2 -5 -3 -3 -1 -1
-2 -0 1 -1 1 0 0 -1 0 -3 -2 -3 -2 2 5 0 -1 -4 -1 0 -2 -4 -3 -1 1 1 1 1 -4 -4 -3 -1 -0 0 0 0 0 -3 -3 -3 -3 -0 -1 -1
5 1 3 4 1 -2 -2 -1 -3 2 -4 -2 0 -8 16 -2 -2 1 -2 -5 -5 -4 -5 -6 -3 -5 -1 -1 -3 -2 -1 -1 -0 -1 -2 -3 -4 -2 -1 -0 -1 -2 -2 1
-1 -2 -4 -3 -3 -2 -1 -2 0 -2 -3 -1 -3 -7 21 -8 -0 1 -1 -2 -4 -3 -4 -5 -3 -2 -1 -0 -2 -1 -1 -1 -1 -4 -4 -3 -1 -1 -2 -2 -1 -1 1 -0
2 2 0 0 -0 -3 -1 0 -3 -5 -3 -4 0 -8 9 -4 -7 -0 -1 -0 0 -1 -3 -3 -1 0 -0 1 -1 -1 -3 -2 -3 -4 -3 -1 -1 -1 -3 -1 2 1 1 1
-1 -3 -2 -2 -1 -1 -6 -2 -1 -9 -5 -4 0 -9 -4 -2 -6 -11 -7 -6 -5 -0 -1 -2 -0 1 0 0 -1 -0 -1 -2 -2 -3 -1 -1 -1 0 2 1 1 2 0 3
-3 -3 -3 -3 -3 -2 -1 -1 -3 -6 -1 -7 2 4 10 -2 -5 -4 -1 0 -1 -2 -2 -1 -2 1 -0 -1 -1 -1 -2 -1 -2 -0 -2 -1 1 1 2 2 1 1 2 -3
-2 -1 -2 -2 -1 -1 -5 -1 -2 -3 -10 -5 -2 8 -2 -1 -3 -2 -4 -2 -2 0 -1 -2 -2 0 0 -0 1 0 -2 -0 -1 -1 -0 0 2 1 0 1 -1 1 -3 -2
-2 -1 -4 -2 -1 -3 -2 -1 -2 -4 -5 -4 0 3 2 -7 -6 -5 -3 -0 0 -1 -0 1 1 4 3 2 1 1 0 1 -1 -0 1 1 3 3 -1 -2 -1 -0 -0 3
0 -0 0 -1 -1 0 -0 -2 -1 -4 -1 -2 -4 17 -4 -4 -4 1 3 -2 -0 -2 -4 -3 -2 2 4 3 1 0 -0 -0 0 3 0 2 1 1 -2 -0 1 1 2 1
-1 -1 -1 -1 -2 -1 -2 -3 -2 -3 -1 8 -9 10 -6 -3 -2 0 2 1 -1 -2 -2 -2 -4 0 0 2 2 1 1 -1 1 2 -0 2 1 -1 -1 0 1 2 2 -0
1 1 1 -1 -0 -1 -1 -0 -1 1 1 -5 6 1 -8 3 6 -1 -3 -3 -3 -3 -2 -1 -1 -3 -1 2 3 2 2 0 -1 3 -1 0 0 -1 1 0 1 2 1 -1
-2 -1 -1 -1 -0 -0 -1 -1 -1 1 -2 2 -3 3 -4 -1 1 -1 -1 -0 1 -1 0 -1 -1 0 -2 1 2 2 0 -1 1 2 -0 1 1 1 1 0 1 1 -0 -1
1 0 -0 -1 0 0 0 2 2 -2 -4 -0 -0 -7 2 -2 -1 -2 -2 -1 -2 -2 -1 1 1 -0 -4 -1 -1 1 -2 -0 1 1 1 2 1 1 -1 -0 0 -0 -1 0
-1 -1 0 -0 1 0 -0 -2 -1 -1 0 0 0 -1 -1 -3 -2 0 -2 -0 -1 -1 -1 -0 -0 -0 -2 -1 -0 -0 -0 1 0 1 1 -0 -1 -2 -1 0 -0 0 0 1
-2 -1 -1 -2 0 -1 -1 0 0 -1 -2 -0 0 -0 -0 -1 -1 -2 -1 -1 -1 -1 -0 0 1 -0 1 -0 -1 0 1 1 1 -0 -0 -1 0 -1 1 0 1 1 1 -0
-0 -1 -1 0 -0 0 1 -1 -1 -1 0 -1 -1 -0 1 2 1 0 -0 0 0 -0 -1 -1 0 -1 -2 -2 -1 1 -0 -1 1 -3 -0 3 1 -0 1 -0 1 -1 -1 -1
1 3 -0 2 0 -0 -1 0 0 -0 0 -2 0 0 1 -0 5 -2 -0 -1 -1 -2 -1 -1 -2 -3 -2 -2 0 1 -2 1 -0 -1 3 1 -0 -0 -1 0 1 -1 1 2
-1 0 1 1 1 1 -2 -0 1 -0 1 2 1 1 1 0 -4 1 -2 -2 1 3 1 -1 0 2 -3 -3 -1 2 -0 -1 -2 0 0 1 -0 0 -2 -1 -2 -1 -1 2
-0 -3 -1 -1 -2 -2 -1 -0 -1 -0 -1 -1 -0 -0 0 -0 1 -1 -2 -0 -0 2 1 -1 4 0 -2 -4 -4 -1 0 -3 1 2 4 3 1 0 0 1 -2 -1 0 1
2 1 2 1 -2 -4 -2 -5 -4 -0 0 0 -3 -1 0 1 2 1 1 0 -1 -2 2 1 3 2 -4 -2 -4 1 -4 0 -1 0 0 1 0 2 1 2 3 1 -1 1
2 -4 4 -2 -6 -3 -2 -0 2 -1 -5 -1 -0 2 -0 -2 1 2 3 1 2 1 -2 -2 2 4 5 -4 1 1 1 -1 1 1 0 -0 1 -1 -1 1 1 1 -1 0
1 -3 -1 7 -2 4 -0 -2 -0 1 -1 -3 -1 -3 -4 0 4 4 2 -2 0 1 -0 -0 -1 3 4 3 4 1 0 3 3 1 -1 -1 -0 2 1 -1 -1 -0 -3 -1
-3 0 -1 10 -9 4 9 -7 -3 3 1 -1 1 3 -4 -4 -3 0 5 3 5 5 1 -3 -5 -0 -5 0 4 -0 2 2 0 2 3 3 3 2 2 3 -0 -0 0 -4
Height
5752 5761 5768 5774 5779 5786 5791 5797 5803 5807 5810 5813 5816 5819 5822 5824 5825 5825 5826 5827 5828 5829 5833 5833 5832 5832 5830 5830 5828 5827 5825 5822 5820 5817 5814 5811 5807 5804 5800 5797 5795 5793 5790 5787
5752 5757 5764 5771 5776 5783 5788 5794 5800 5803 5805 5808 5811 5814 5815 5818 5821 5820 5821 5822 5822 5822 5825 5826 5826 5825 5824 5821 5820 5818 5816 5813 5810 5806 5803 5800 5797 5793 5790 5787 5785 5783 5780 5777
5750 5758 5764 5769 5775 5780 5785 5790 5793 5797 5800 5802 5805 5809 5809 5813 5816 5817 5818 5817 5817 5816 5817 5819 5819 5818 5815 5813 5811 5808 5805 5803 5799 5796 5793 5790 5787 5785 5782 5779 5776 5773 5769 5767
5751 5757 5763 5767 5772 5776 5781 5785 5788 5791 5795 5798 5799 5803 5806 5808 5810 5811 5811 5812 5811 5809 5809 5809 5809 5809 5806 5804 5801 5797 5794 5791 5788 5786 5784 5781 5779 5775 5772 5769 5766 5763 5761 5760
5752 5756 5761 5765 5770 5774 5779 5781 5785 5787 5790 5792 5794 5795 5804 5802 5805 5805 5805 5805 5804 5802 5800 5798 5797 5795 5794 5792 5788 5786 5783 5781 5779 5777 5774 5772 5769 5767 5763 5760 5759 5758 5757 5756
5749 5754 5759 5763 5767 5771 5774 5777 5780 5782 5784 5786 5789 5789 5797 5797 5797 5798 5797 5796 5795 5793 5791 5789 5786 5784 5781 5779 5777 5775 5774 5772 5770 5768 5766 5763 5761 5759 5757 5755 5755 5755 5753 5753
5748 5752 5756 5760 5764 5767 5770 5773 5775 5777 5779 5780 5783 5784 5787 5788 5789 5788 5787 5787 5785 5783 5781 5778 5777 5774 5772 5770 5768 5767 5766 5764 5762 5759 5757 5755 5754 5753 5752 5752 5751 5751 5750 5749
5746 5752 5754 5757 5761 5763 5766 5768 5770 5769 5773 5775 5776 5778 5779 5777 5775 5775 5776 5774 5772 5770 5770 5768 5767 5766 5764 5762 5760 5759 5757 5755 5753 5751 5750 5749 5748 5748 5748 5749 5749 5748 5747 5745
5745 5749 5752 5755 5757 5759 5760 5762 5764 5764 5765 5767 5768 5769 5769 5768 5766 5765 5764 5763 5762 5762 5760 5759 5758 5757 5755 5754 5752 5751 5749 5748 5746 5745 5745 5744 5745 5745 5745 5745 5745 5744 5742 5739
5742 5746 5748 5750 5753 5755 5756 5758 5759 5759 5759 5761 5761 5763 5761 5760 5759 5758 5756 5755 5754 5753 5751 5749 5748 5747 5746 5745 5744 5743 5743 5742 5742 5741 5740 5741 5741 5742 5742 5742 5742 5740 5737 5735
5738 5742 5745 5746 5748 5749 5751 5752 5753 5754 5755 5755 5757 5758 5756 5754 5752 5750 5749 5748 5746 5744 5741 5738 5735 5735 5736 5736 5736 5737 5737 5737 5737 5736 5737 5738 5739 5739 5739 5739 5738 5736 5734 5730
5734 5737 5740 5742 5743 5744 5745 5746 5747 5747 5749 5749 5749 5753 5747 5745 5743 5742 5741 5738 5737 5735 5732 5728 5724 5724 5726 5729 5731 5732 5732 5733 5733 5733 5734 5735 5736 5736 5735 5735 5734 5732 5730 5726
5734 5736 5738 5739 5741 5740 5741 5741 5742 5742 5743 5743 5741 5744 5738 5737 5736 5735 5734 5733 5731 5729 5727 5723 5720 5719 5721 5724 5726 5727 5729 5730 5730 5730 5730 5732 5732 5732 5731 5731 5730 5728 5725 5722
5733 5734 5735 5736 5737 5737 5737 5737 5736 5736 5737 5736 5738 5736 5733 5734 5734 5732 5729 5727 5726 5725 5723 5721 5719 5719 5720 5721 5722 5723 5724 5725 5727 5727 5728 5728 5728 5727 5727 5726 5725 5723 5720 5716
5730 5731 5732 5732 5732 5733 5733 5733 5733 5733 5732 5734 5733 5733 5730 5731 5729 5727 5725 5723 5722 5721 5720 5718 5717 5717 5717 5718 5717 5717 5719 5721 5723 5723 5724 5724 5723 5722 5722 5721 5719 5718 5715 5711
5730 5731 5731 5730 5731 5731 5731 5731 5731 5731 5730 5731 5730 5729 5729 5726 5725 5723 5721 5718 5717 5716 5715 5714 5713 5713 5712 5711 5710 5711 5714 5716 5717 5718 5719 5718 5718 5717 5716 5715 5714 5712 5709 5706
5730 5730 5730 5730 5729 5729 5730 5729 5729 5729 5728 5728 5727 5725 5723 5721 5719 5717 5715 5713 5711 5709 5708 5707 5707 5706 5705 5703 5703 5706 5709 5710 5711 5711 5712 5712 5711 5711 5710 5709 5708 5706 5703 5700
5730 5729 5728 5728 5728 5728 5727 5725 5725 5724 5723 5722 5721 5720 5718 5717 5715 5712 5710 5708 5705 5702 5700 5699 5699 5699 5698 5697 5699 5701 5703 5704 5704 5705 5705 5705 5705 5704 5704 5703 5701 5699 5697 5694
5726 5726 5726 5725 5724 5725 5723 5722 5722 5721 5720 5718 5717 5716 5715 5713 5710 5708 5705 5703 5699 5695 5692 5691 5691 5692 5692 5691 5693 5695 5697 5698 5698 5697 5699 5699 5698 5697 5696 5695 5693 5691 5689 5686
5722 5721 5722 5721 5720 5719 5718 5718 5717 5716 5716 5714 5713 5711 5709 5707 5706 5702 5699 5697 5694 5690 5687 5686 5686 5686 5685 5685 5687 5688 5689 5690 5689 5691 5691 5691 5690 5689 5688 5686 5685 5683 5681 5678
5715 5715 5715 5714 5714 5713 5711 5711 5710 5711 5712 5708 5706 5705 5702 5701 5699 5697 5694 5691 5689 5687 5683 5681 5680 5679 5678 5679 5681 5682 5683 5682 5683 5683 5683 5682 5681 5680 5678 5677 5675 5673 5671 5668
5710 5709 5708 5707 5706 5706 5705 5705 5705 5704 5701 5699 5697 5695 5694 5692 5690 5688 5686 5684 5681 5680 5678 5675 5674 5672 5670 5671 5675 5676 5676 5675 5676 5675 5675 5674 5672 5670 5669 5667 5664 5662 5660 5657
5703 5701 5702 5700 5698 5695 5697 5696 5696 5694 5691 5690 5688 5686 5683 5683 5682 5680 5678 5676 5674 5672 5671 5669 5669 5667 5665 5665 5667 5668 5667 5667 5667 5666 5664 5663 5661 5659 5657 5655 5653 5650 5647 5645
5694 5691 5692 5692 5690 5687 5687 5688 5686 5684 5683 5682 5680 5678 5675 5674 5673 5672 5670 5667 5665 5663 5661 5661 5661 5660 5658 5657 5658 5658 5657 5656 5655 5654 5653 5651 5650 5647 5644 5642 5640 5637 5634 5630
5687 5682 5679 5684 5682 5678 5678 5675 5672 5672 5672 5671 5670 5667 5666 5664 5664 5662 5661 5659 5657 5655 5652 5650 5649 5650 5649 5647 5646 5644 5644 5643 5642 5640 5638 5636 5635 5633 5630 5627 5625 5622 5619 5615
5674 5673 5670 5672 5671 5672 5671 5663 5661 5661 5660 5657 5655 5655 5653 5651 5652 5651 5649 5647 5646 5645 5642 5639 5638 5636 5635 5634 5633 5630 5629 5628 5626 5625 5622 5620 5618 5615 5614 5612 5610 5606 5604 5600